PD0HRY-12 Weather Reports


time (UTC)temp
C
wind
direction
speed
KPH
gust
KPH
rain 1hr
cm
rain 24hr
cm
rain mn
cm
humidity
%
barometer
mb
20260506043004 8 325 0.0 0.0 0.00 0.00 0.00 91 1000.0
20260506040002 8 347 0.0 0.0 0.00 0.00 0.00 91 1000.0
20260506033000 8 335 0.0 0.0 0.00 0.00 0.00 91 1000.0
20260506030004 8 358 0.0 0.0 0.00 0.00 0.00 92 1000.0
20260506023002 8 30 0.0 0.0 0.00 0.00 0.00 90 1001.0
20260506020000 8 317 0.0 0.0 0.00 0.00 0.00 89 1001.0
20260506013004 8 51 0.0 0.0 0.00 0.23 0.00 89 1001.0
20260506010002 8 14 0.0 0.0 0.00 0.23 0.00 87 1001.0
20260506003005 9 354 0.0 0.0 0.00 0.61 0.00 85 1001.0
20260506000003 9 1 0.0 0.0 0.00 0.61 0.00 85 1001.0
20260505233001 9 331 0.0 0.0 0.00 1.14 0.00 84 1002.0
20260505230005 9 338 0.0 0.0 0.00 1.14 0.00 83 1002.0
20260505223003 10 308 0.0 0.0 0.00 1.32 0.00 83 1002.0
20260505220002 10 355 0.0 0.0 0.00 1.32 1.32 83 1002.0
20260505213005 10 354 0.0 0.0 0.00 1.32 1.32 83 1002.0
20260505210003 10 18 0.0 0.0 0.00 1.32 1.32 82 1002.0
20260505203001 10 287 0.0 0.0 0.00 3.61 1.32 82 1002.0
20260505200005 10 342 0.0 0.0 0.00 3.61 1.32 82 1002.0
20260505193003 10 343 0.0 0.0 0.00 9.55 1.32 82 1002.0
20260505190001 11 352 0.0 0.0 0.00 9.55 1.32 83 1002.0
20260505183004 11 332 0.0 0.0 0.00 11.10 1.32 83 1002.0
20260505180003 11 26 0.0 0.0 0.00 11.10 1.32 82 1002.0
20260505173001 11 45 0.0 0.0 0.00 2.79 1.32 81 1002.0
20260505170004 11 24 0.0 0.0 0.00 2.79 1.32 80 1002.0
20260505163002 11 323 0.0 0.0 0.00 2.79 1.32 79 1002.0
20260505153004 11 4 0.0 0.0 0.00 2.79 1.32 80 1002.0
20260505123004 11 353 0.0 0.0 0.00 2.79 1.32 84 1003.0
20260505120002 11 13 0.0 0.0 0.00 2.79 1.32 84 1003.0
20260505113000 10 96 0.0 0.0 0.00 2.79 1.32 85 1004.0
20260505100000 9 326 0.0 0.0 0.00 2.79 1.32 89 1004.0
20260505093004 9 23 0.0 0.0 0.00 2.79 1.32 90 1004.0
20260505090002 9 346 0.0 0.0 0.00 2.79 1.32 91 1004.0
20260505083002 8 355 0.0 0.0 0.00 2.79 1.32 93 1004.0
20260505080004 8 316 0.0 0.0 0.00 2.79 1.32 92 1004.0
20260505073002 8 17 0.0 0.0 0.00 2.79 1.32 93 1004.0
20260505070001 8 13 0.0 0.0 0.00 2.79 1.32 92 1004.0
20260505063004 8 311 0.0 0.0 0.00 2.79 1.32 92 1004.0